When you browse on this site, cookies collect data to enhance your experience and personalize the content and advertising you see.
Visit our Privacy Policy to learn more. By continuing to use the site, you agree to this use of cookies and data.
  • In Hungary
  • List of Countries
  • For 7 days
  • Water Temperature
  • Satellite Maps
  • Weather Map
  • News
  • Weather Widgets
  • user-avatar
    Login

    Hourly Weather Kananga

    Today, 19 January, Saturday

    Time Temperature Precipitation Wind Pressure Humidity
    00:00 +22°C° 0 mm 0 mps 704 mmHg 48%
    01:00 +22°C° 0 mm 0 mps 704 mmHg 54%
    02:00 +22°C° 0 mm 0 mps 704 mmHg 52%
    03:00 +23°C° 0 mm 1 mps 704 mmHg 50%
    04:00 +23°C° 0 mm 1 mps 704 mmHg 49%
    05:00 +24°C° 0 mm 1 mps 705 mmHg 43%
    06:00 +25°C° 0 mm 1 mps 705 mmHg 38%
    07:00 +24°C° 0 mm 0 mps 706 mmHg 32%
    08:00 +31°C° 0 mm 1 mps 706 mmHg 25%
    09:00 +35°C° 0 mm 1 mps 707 mmHg 18%
    10:00 +40°C° 0 mm 1 mps 707 mmHg 10%
    11:00 +42°C° 0 mm 1 mps 707 mmHg 10%
    12:00 +44°C° 0 mm 1 mps 706 mmHg 9%
    13:00 +45°C° 0 mm 1 mps 705 mmHg 8%
    14:00 +44°C° 0 mm 1 mps 704 mmHg 8%
    15:00 +43°C° 0 mm 1 mps 704 mmHg 8%
    16:00 +42°C° 0 mm 1 mps 703 mmHg 9%
    17:00 +37°C° 0 mm 1 mps 703 mmHg 12%
    18:00 +33°C° 0 mm 1 mps 703 mmHg 14%
    19:00 +27°C° 0 mm 0 mps 703 mmHg 17%
    20:00 +26°C° 0 mm 0 mps 703 mmHg 18%
    21:00 +25°C° 0 mm 0 mps 704 mmHg 19%
    22:00 +24°C° 0 mm 0 mps 704 mmHg 20%
    23:00 +24°C° 0 mm 0 mps 704 mmHg 22%

    Tomorrow, 20 January, Sunday

    Time Temperature Precipitation Wind Pressure Humidity
    00:00 +23°C° 0 mm 0 mps 704 mmHg 24%
    01:00 +22°C° 0 mm 0 mps 704 mmHg 26%
    02:00 +22°C° 0 mm 0 mps 704 mmHg 26%
    03:00 +21°C° 0 mm 0 mps 704 mmHg 26%
    04:00 +21°C° 0 mm 0 mps 704 mmHg 26%
    05:00 +22°C° 0 mm 0 mps 705 mmHg 25%
    06:00 +23°C° 0 mm 0 mps 705 mmHg 23%
    07:00 +24°C° 0 mm 0 mps 706 mmHg 22%
    08:00 +30°C° 0 mm 1 mps 706 mmHg 18%
    09:00 +34°C° 0 mm 1 mps 707 mmHg 13%
    10:00 +40°C° 0 mm 2 mps 707 mmHg 9%
    11:00 +42°C° 0 mm 1 mps 707 mmHg 8%
    12:00 +45°C° 0 mm 1 mps 706 mmHg 7%
    13:00 +45°C° 0 mm 0 mps 705 mmHg 6%
    14:00 +43°C° 0 mm 0 mps 705 mmHg 7%
    15:00 +44°C° 0 mm 1 mps 704 mmHg 7%
    16:00 +42°C° 0 mm 1 mps 703 mmHg 8%
    17:00 +37°C° 0 mm 1 mps 703 mmHg 10%
    18:00 +33°C° 0 mm 1 mps 703 mmHg 13%
    19:00 +29°C° 0 mm 1 mps 703 mmHg 16%
    20:00 +28°C° 0 mm 1 mps 703 mmHg 17%
    21:00 +25°C° 0 mm 0 mps 704 mmHg 18%
    22:00 +24°C° 0 mm 0 mps 704 mmHg 19%
    23:00 +25°C° 0 mm 1 mps 704 mmHg 20%

    Day after tomorrow, 21 January, Monday

    Time Temperature Precipitation Wind Pressure Humidity
    00:00 +25°C° 0 mm 1 mps 704 mmHg 20%
    01:00 +25°C° 0 mm 1 mps 704 mmHg 21%
    02:00 +24°C° 0 mm 1 mps 704 mmHg 22%
    03:00 +24°C° 0 mm 1 mps 704 mmHg 23%
    04:00 +23°C° 0 mm 1 mps 704 mmHg 24%
    05:00 +24°C° 0 mm 1 mps 704 mmHg 22%
    06:00 +26°C° 0 mm 1 mps 705 mmHg 21%
    07:00 +27°C° 0 mm 1 mps 706 mmHg 19%
    08:00 +31°C° 0 mm 1 mps 706 mmHg 16%
    09:00 +36°C° 0 mm 2 mps 707 mmHg 12%
    10:00 +40°C° 0 mm 2 mps 707 mmHg 9%
    11:00 +42°C° 0 mm 2 mps 706 mmHg 8%
    12:00 +44°C° 0 mm 1 mps 706 mmHg 8%
    13:00 +45°C° 0 mm 1 mps 705 mmHg 7%
    14:00 +44°C° 0 mm 1 mps 704 mmHg 8%
    15:00 +43°C° 0 mm 1 mps 703 mmHg 8%
    16:00 +42°C° 0 mm 1 mps 703 mmHg 9%
    17:00 +39°C° 0 mm 1 mps 703 mmHg 12%
    18:00 +35°C° 0 mm 1 mps 703 mmHg 15%
    19:00 +32°C° 0 mm 1 mps 703 mmHg 18%
    20:00 +30°C° 0 mm 1 mps 703 mmHg 20%
    21:00 +29°C° 0 mm 1 mps 703 mmHg 22%
    22:00 +27°C° 0 mm 1 mps 704 mmHg 24%
    23:00 +27°C° 0 mm 1 mps 703 mmHg 29%

    22 January, Tuesday

    Time Temperature Precipitation Wind Pressure Humidity
    00:00 +26°C° 0 mm 1 mps 703 mmHg 33%
    01:00 +26°C° 0 mm 1 mps 703 mmHg 37%
    02:00 +25°C° 0 mm 1 mps 703 mmHg 38%
    03:00 +25°C° 0 mm 1 mps 703 mmHg 38%
    04:00 +24°C° 0 mm 1 mps 703 mmHg 39%
    05:00 +25°C° 0 mm 1 mps 704 mmHg 36%
    06:00 +27°C° 0 mm 1 mps 705 mmHg 34%
    07:00 +28°C° 0 mm 1 mps 706 mmHg 31%
    08:00 +32°C° 0 mm 1 mps 706 mmHg 29%
    09:00 +35°C° 0 mm 1 mps 706 mmHg 27%
    10:00 +39°C° 0 mm 1 mps 707 mmHg 24%
    11:00 +42°C° 0 mm 1 mps 706 mmHg 20%
    12:00 +42°C° 0 mm 0 mps 705 mmHg 16%
    13:00 +45°C° 0 mm 0 mps 705 mmHg 12%
    14:00 +45°C° 0 mm 1 mps 704 mmHg 14%
    15:00 +41°C° 0 mm 1 mps 703 mmHg 17%
    16:00 +38°C° 0 mm 2 mps 702 mmHg 20%
    17:00 +36°C° 0 mm 2 mps 702 mmHg 25%
    18:00 +34°C° 0 mm 2 mps 702 mmHg 29%
    19:00 +30°C° 0 mm 1 mps 703 mmHg 34%
    20:00 +30°C° 0 mm 1 mps 703 mmHg 36%
    21:00 +29°C° 0 mm 1 mps 703 mmHg 39%
    22:00 +28°C° 0 mm 1 mps 703 mmHg 41%
    23:00 +27°C° 0 mm 1 mps 703 mmHg 42%

    23 January, Wednesday

    Time Temperature Precipitation Wind Pressure Humidity
    00:00 +27°C° 0 mm 1 mps 702 mmHg 42%
    01:00 +26°C° 0 mm 1 mps 702 mmHg 43%
    02:00 +26°C° 0 mm 1 mps 702 mmHg 47%
    03:00 +23°C° 0 mm 0 mps 702 mmHg 50%
    04:00 +22°C° 0 mm 0 mps 702 mmHg 54%
    05:00 +23°C° 0 mm 0 mps 703 mmHg 51%
    06:00 +24°C° 0 mm 0 mps 704 mmHg 48%
    07:00 +25°C° 0 mm 0 mps 705 mmHg 45%
    08:00 +31°C° 0 mm 1 mps 705 mmHg 38%
    09:00 +35°C° 0 mm 1 mps 706 mmHg 31%
    10:00 +40°C° 0 mm 2 mps 706 mmHg 24%
    11:00 +43°C° 0 mm 1 mps 705 mmHg 20%
    12:00 +46°C° 0 mm 1 mps 705 mmHg 15%
    13:00 +46°C° 0 mm 0 mps 704 mmHg 11%
    14:00 +43°C° 0 mm 0 mps 703 mmHg 13%
    15:00 +40°C° 0 mm 0 mps 702 mmHg 15%
    16:00 +36°C° 0 mm 0 mps 701 mmHg 18%
    17:00 +37°C° 0 mm 1 mps 702 mmHg 19%
    18:00 +35°C° 0 mm 1 mps 702 mmHg 21%
    19:00 +34°C° 0 mm 1 mps 703 mmHg 23%
    20:00 +33°C° 0 mm 1 mps 703 mmHg 25%
    21:00 +32°C° 0 mm 1 mps 703 mmHg 28%
    22:00 +29°C° 0 mm 0 mps 703 mmHg 30%
    23:00 +28°C° 0 mm 0 mps 703 mmHg 32%

    24 January, Thursday

    Time Temperature Precipitation Wind Pressure Humidity
    00:00 +29°C° 0 mm 1 mps 703 mmHg 35%
    01:00 +28°C° 0 mm 1 mps 702 mmHg 38%
    02:00 +27°C° 0 mm 1 mps 702 mmHg 41%
    03:00 +26°C° 0 mm 1 mps 702 mmHg 44%
    04:00 +25°C° 0 mm 1 mps 702 mmHg 48%
    05:00 +26°C° 0 mm 1 mps 703 mmHg 47%
    06:00 +25°C° 0 mm 0 mps 704 mmHg 46%
    07:00 +26°C° 0 mm 0 mps 705 mmHg 46%
    08:00 +31°C° 0 mm 1 mps 705 mmHg 39%
    09:00 +35°C° 0 mm 1 mps 705 mmHg 33%
    10:00 +39°C° 0 mm 2 mps 706 mmHg 26%
    11:00 +42°C° 0 mm 1 mps 705 mmHg 22%
    12:00 +46°C° 0 mm 1 mps 704 mmHg 17%
    13:00 +46°C° 0 mm 0 mps 704 mmHg 12%
    14:00 +46°C° 0 mm 1 mps 703 mmHg 14%
    15:00 +43°C° 0 mm 1 mps 702 mmHg 17%
    16:00 +40°C° 0 mm 2 mps 701 mmHg 19%
    17:00 +37°C° 0 mm 2 mps 701 mmHg 23%
    18:00 +35°C° 0 mm 2 mps 702 mmHg 27%
    19:00 +32°C° 0 mm 1 mps 702 mmHg 31%
    20:00 +30°C° 0 mm 1 mps 702 mmHg 35%
    21:00 +29°C° 0 mm 1 mps 702 mmHg 40%
    22:00 +28°C° 0 mm 1 mps 702 mmHg 44%
    23:00 +27°C° 0 mm 1 mps 702 mmHg 48%
    Show more